Arar current weather conditions

sailwx.info

Wind from 140 at 15 knots

Air temperature 32.0° C
Visibility: greater than 4.3 NM
Dewpoint 5.0° C

Last reported at 2015-Apr-27 12:00 UTC.
Time now 2015-Apr-27 13:36 UTC

Location: N 30°54' E 041°08'.
View on Google Maps.

See reports from other nearby stations

  
Tides and Currents Weather Stations Pressure Air Temp Water Temp Dewpoint Dewpoint Depression Visibility Wind Speed Wind Dir Waves Ship Positions
date/time (UTC)wind fromknots sea level pressurealtimeterstation pressurevisibilityair tempwater tempwave heightnotes
2015-Apr-27 12:00 140 15 4.332.0
2015-Apr-27 11:00 130 15 4.331.0
2015-Apr-27 10:00 130 13 4.330.0
2015-Apr-27 09:00 130 16 4.329.0
2015-Apr-27 08:00 130 15 5.427.0
2015-Apr-27 07:00 120 12 26.0
2015-Apr-27 06:00 140 12 23.0
2015-Apr-27 05:00 130 8 20.0
2015-Apr-27 04:00 130 5 19.0
2015-Apr-27 03:00 090 3 14.0
2015-Apr-27 02:00 090 4 15.0
2015-Apr-27 01:00 080 5 15.0
2015-Apr-27 00:00 070 6 15.0
2015-Apr-26 23:00 080 6 17.0
2015-Apr-26 22:00 080 6 17.0
2015-Apr-26 21:00 080 5 18.0
2015-Apr-26 20:00 080 5 19.0
2015-Apr-26 19:00 100 6 19.0
2015-Apr-26 18:00 090 6 20.0
2015-Apr-26 17:00 110 7 22.0
2015-Apr-26 16:00 110 8 24.0
2015-Apr-26 15:00 110 9 26.0
2015-Apr-26 14:00 110 8 27.0
2015-Apr-26 13:00 100 3 27.0
2015-Apr-26 12:00 150 6 27.0
2015-Apr-26 11:00 140 7 27.0
2015-Apr-26 10:00 110 5 26.0
2015-Apr-26 09:00 130 6 25.0
2015-Apr-26 08:00 130 8 24.0
2015-Apr-26 07:00 130 8 22.0
2015-Apr-26 06:00 110 8 20.0
2015-Apr-26 05:00 090 5 17.0
2015-Apr-26 04:00 080 3 15.0
2015-Apr-26 03:00 050 4 10.0
2015-Apr-26 02:00 040 4 10.0
2015-Apr-26 01:00 060 6 11.0
2015-Apr-26 00:00 12.0
2015-Apr-25 23:00 150 3 14.0
2015-Apr-25 22:00 140 3 15.0
2015-Apr-25 21:00 110 4 15.0
2015-Apr-25 20:00 090 5 16.0
2015-Apr-25 19:00 080 5 16.0
2015-Apr-25 18:00 080 5 17.0
2015-Apr-25 17:00 080 5 19.0
2015-Apr-25 16:00 070 7 4.921.0
2015-Apr-25 15:00 070 6 4.923.0
2015-Apr-25 14:00 050 8 4.924.0
2015-Apr-25 13:00 4.924.0